Starlink 1648

operational
NORAD ID: 46533 Int'l Des: 2020-070 Owner: SPXS Country: US Constellation: starlink
LEOCIRCULARSTARLINK_TYPE

Über Starlink 1648

Beschreibung wird geladen...

Live-Position

3D-Globus wird geladen...

Nächste Überflüge

Höhenverlauf

Altitude vs Time

uPlot chart will show altitude changes over time

Zweizeiliger Elementsatz

1 46533U 20070B 25304.91668980 -.00005243 00000-0 -12307-3 0 9993
2 46533 53.0659 32.7152 0001405 72.6983 234.2193 15.39155954 5844
Epoch: 31. Okt. 2025 • Age: 10 hours

Aktueller Status

Höhe 448.8 km
Geschwindigkeit 7.65 km/s
Subsatellitenpunkt 18.14°N, 31.73°E
Startdatum 6. Okt. 2020
Alter 5 years
Typ internet

Technische Details

Klassifizierung Payload
Masse 260.00 kg
Trockenmasse 248.00 kg
Gesamtmasse 260.00 kg
Länge 0.20 m
Durchmesser 2.80 m
Spannweite 9.00 m
Form Box + pan
Hersteller SPXS
Bus-Typ Starlink
Phasenstatus In Orbit
Besitzer/Staat SPXS/US

Große Konstellationen

Loading constellations...